Location: 22
(39.7117°N, 89.5929°W)
Time: 01:07:09
(UTC-05:00)

A-11 Canister half - Pass Details

Date: 16 June 2023
Orbit: 1524 x 1684 km, 47.3° (Epoch: 29 September)

Event Time Altitude Azimuth Distance (km) Brightness Sun altitude
Rises 02:01:37 0° 297° (WNW) 4,689 11.7 -25.3°
Reaches altitude 10° 02:04:52 10° 290° (WNW) 3,716 11.0 -25.1°
Maximum altitude 02:13:18 39° 226° (SW) 2,193 9.3 -24.6°
Enters shadow 02:14:00 39° 217° (SW) 2,211 9.3 -24.6°
